Location: İstanbul
(41.0082°N, 28.9784°E)
Time: 02:27:51
(UTC+03:00)

NOAA 19 - Pass Details

Date: 01 May 2024
Orbit: 839 x 859 km, 99.0° (Epoch: 28 May)

Event Time Altitude Azimuth Distance (km) Brightness Sun altitude
Exits shadow 21:49:37 22° 173° (S) 1,778 6.5 -18.3°
Maximum altitude 21:53:17 76° 256° (WSW) 870 5.3 -18.8°
Drops below altitude 10° 21:58:45 10° 343° (NNW) 2,463 8.5 -19.6°
Sets 22:01:07 0° 345° (NNW) 3,402 9.3 -19.9°
